Showing default

ICEYE-X6, 46497

Orbit data source: Space-Track

ICEYE-X6, 46497 is a payload satellite owned by ICEYE (FI) in SSO that was launched on Mon, 28 Sep 2020 UTC via a SOYUZ-2-1B launch vehicle from the Plesetsk Missile And Space Complex (PKMTR). Payload-class satellites include a variety of spacecraft equipped with specific instruments for various scientific and technological missions. These include communications satellites like Starlink; space stations such as the ISS; scientific satellites like the Hubble; Earth observation satellites from companies like Planet Labs, Umbra, and HawkEye 360; GPS; miniature CubeSats for education and research; and military/defense satellites.

Loading next visibility...
Identifier
46497, 2020-068M
Orbit
SSO
Country
Flag of FIFI / FIN
Related business
Manufacturer
ICEYE
Mission
Operational Commercial Radar Imaging
Bus & Motor
ICEYE, Unknown motor
Mass
80 kg wet, 80 kg dry
Launch date (UTC)
2020-09-28 (5 years ago)
Launch vehicle
SOYUZ-2-1B
Launch site
Plesetsk Missile And Space Complex (PKMTR)
Object type
Payload
Rocket body
Debris
Shape & HBR
Box + 1 Pan, 1.6 m
Radar Cross Section
1.837 m², Medium (>0.1 m² and < 1m²)

Expand to show TLE details & history
Last TLE update: 5 hours ago

TLE from 5 hours ago
0 ICEYE-X6
1 46497U 20068M   25292.95791941  .00011212  00000-0  85293-3 0  9998
2 46497  98.0773 270.7744 0007260 164.5254 195.6193 15.02281147277134
Epoch: 2025-10-19T22:59Z
TLE epoch observation values (Epoch: 2025-10-19T22:59:24.237Z)
Latitude
0.00002°
Longitude
-102.74371°
Altitude
567.763 km
Speed
7.575 km/s
True Right ascension
18h 03m 05s
True Declination
0° 00' 00"
Sunlit
Object was in daylight at epoch
Visualization orbit readout
Latitude
Unknown
Longitude
Unknown
Altitude
Unknown
Speed
Unknown
Apparent Right ascension
Unknown
Apparent Declination
Unknown
Sunlit
N/A
Visualization observer readout
Local Sidereal Time
22:38:01
Azimuth
Unknown
Elevation
Unknown
Doppler factor
Unknown
Orbital elements
Apogee altitude
561.918 km
Perigee altitude
551.849 km
Semi-major axis
6,935.02 km
Eccentricity
0.00073
Inclination
98.0773°
RAAN
270.7744°
Arg. of periapsis
164.5254°
True anomaly
195.59692°
Mean anomaly
195.6193°
Eccentric anomaly
195.60811°
Mean motion
3.75813 °/min
Orbital period
95.79 mins
BSTAR
0.00085293
Loading maneuver chart data...
Computing Atmospheric mass density...
Loading historical data...
Loading historical data...
Loading historical data...
Loading historical data...
Loading historical data...
Loading historical data...
Loading historical data...

Documentation

Showing up to 5 results
|